This demonstration page uses our WeatherBlox Daily Observations layout. Learn more.

Left ArrowRight Arrow

Hourly Observations for September 19, 2020

Temp ( °F °C ) Dew Point ( °F °C ) Humidity (%) Winds ( mph kmh ) Pressure ( in mb ) Visibility ( mi km ) Precip ( " mm )
12:53 am 00:53 Clear 67 19.4 53 11.7 61 61 E 7 11 30.08 1019 10 16 0.00 0.00
1:53 am 01:53 Clear 66 18.9 53 11.7 63 63 E 7 11 30.08 1019 10 16 0.00 0.00
2:53 am 02:53 Clear 64 17.8 53 11.7 68 68 ENE 8 13 30.08 1019 10 16 0.00 0.00
3:53 am 03:53 Clear 63 17.2 52 11.1 68 68 Calm 30.07 1018 10 16 0.00 0.00
4:53 am 04:53 Clear 60 15.6 52 11.1 75 75 NNE 3 6 30.07 1018 10 16 0.00 0.00
5:53 am 05:53 Clear 59 15 52 11.1 78 78 NE 5 7 30.07 1018 10 16 0.00 0.00
6:53 am 06:53 Clear 58 14.4 51 10.6 78 78 NNE 6 9 30.09 1019 10 16 0.00 0.00
7:53 am 07:53 Sunny 56 13.3 51 10.6 84 84 N 6 9 30.10 1019 10 16 0.00 0.00
8:53 am 08:53 Sunny 62 16.7 53 11.7 73 73 ENE 7 11 30.11 1020 10 16 0.00 0.00
9:53 am 09:53 Sunny 69 20.6 56 13.3 63 63 E 9 15 30.11 1020 10 16 0.00 0.00
10:53 am 10:53 Sunny 71 21.7 56 13.3 59 59 SE 7 11 30.13 1020 10 16 0.00 0.00
11:53 am 11:53 Partly Cloudy 74 23.3 56 13.3 54 54 SSE 6 9 30.12 1020 10 16 0.00 0.00
12:53 pm 12:53 Mostly Sunny 77 25 53 11.7 43 43 VRB 7 11 30.09 1019 10 16 0.00 0.00
1:53 pm 13:53 Partly Cloudy 79 26.1 53 11.7 41 41 VRB 5 7 30.06 1018 10 16 0.00 0.00
2:53 pm 14:53 Sunny 80 26.7 52 11.1 38 38 ESE 12 19 30.04 1017 10 16 0.00 0.00
3:53 pm 15:53 Sunny 81 27.2 52 11.1 37 37 VRB 3 6 30.01 1016 10 16 0.00 0.00
4:53 pm 16:53 Sunny 82 27.8 52 11.1 35 35 ESE 12 19 30.00 1016 10 16 0.00 0.00
5:53 pm 17:53 Sunny 82 27.8 51 10.6 34 34 SE 7 11 29.99 1016 10 16 0.00 0.00
6:53 pm 18:53 Sunny 81 27.2 51 10.6 35 35 SSE 8 13 29.99 1016 10 16 0.00 0.00
7:53 pm 19:53 Clear 78 25.6 51 10.6 39 39 SE 7 11 30.00 1016 10 16 0.00 0.00
8:53 pm 20:53 Clear 75 23.9 51 10.6 43 43 SE 8 13 30.01 1016 10 16 0.00 0.00
9:53 pm 21:53 Clear 73 22.8 51 10.6 46 46 ESE 9 15 30.02 1017 10 16 0.00 0.00
10:53 pm 22:53 Clear 70 21.1 51 10.6 51 51 E 6 9 30.04 1017 10 16 0.00 0.00
11:53 pm 23:53 Clear 68 20 53 11.7 59 59 ESE 8 13 30.05 1018 10 16 0.00 0.00

Powered by AerisWeather